Location: Unspecified
(43.4680°N, 87.1740°E)
Time: 18:07:15
(UTC+00:00)

Okean 2 - Pass Details

Date: 04 August 2021
Orbit: 558 x 577 km, 82.5° (Epoch: 16 September)

Event Time Altitude Azimuth Distance (km) Brightness Sun altitude
Rises 20:25:36 0° 336° (NNW) 2,799 7.4 -22.8°
Reaches altitude 10° 20:28:15 10° 319° (NW) 1,893 6.2 -22.5°
Enters shadow 20:29:57 17° 298° (WNW) 1,488 5.4 -22.3°
